Orbital Elements at Epoch 2459200.5 (2020-Dec-17.0) TDB
Reference: JPL 18 (heliocentric ecliptic J2000)
Element | Value | Uncertainty (1-sigma) | Units |
e | .040849413381202 | 3.5685e-08 | |
a | 2.361475878034721 | 9.5682e-09 | au |
q | 2.265010973703144 | 8.5122e-08 | au |
i | 2.318769248618116 | 3.6272e-06 | deg |
node | 225.0852685535244 | 9.3808e-05 | deg |
peri | 300.1608790076127 | 0.00010367 | deg |
M | 142.3658386683738 | 4.3553e-05 | deg |
tp | 2458676.324174843497 (2019-Jul-11.82417484) | 0.0001603 | TDB |
period | 1325.481581967887 3.63 | 8.0559e-06 2.206e-08 | d yr |
n | .2715993982093083 | 1.6507e-09 | deg/d |
Q | 2.457940782366299 | 9.9591e-09 | au |
|
| | Orbit Determination Parameters
Additional Information
|